DLJ531H LEZL-LEBB

Flight info

Callsign DLJ531H
Flight time N/A
Altitude 34000
Route HIJ DCT PARKA DCT TLD DCT SIE DCT EDIGO DCT DGO
Aircraft C525/L-SDFGRWY/S

Departure

Time 2026-04-28 10:15
Airport Seville Airport (LEZL)

Arrival

Time N/A
Airport Bilbao Airport (LEBB)
Time Latitude Longitude Altitude Speed Heading
2026-04-28 10:08 37.42039 -5.90488 80 ft 0 kts 272°
2026-04-28 10:09 37.42039 -5.90489 80 ft 0 kts 272°
2026-04-28 10:10 37.42039 -5.90497 80 ft 2 kts 270°
2026-04-28 10:10 37.42019 -5.90527 79 ft 8 kts 181°
2026-04-28 10:10 37.41998 -5.90530 79 ft 9 kts 191°
2026-04-28 10:11 37.41986 -5.90532 79 ft 10 kts 194°
2026-04-28 10:11 37.41978 -5.90632 79 ft 13 kts 269°
2026-04-28 10:11 37.41975 -5.90780 77 ft 20 kts 270°
2026-04-28 10:11 37.41948 -5.90971 76 ft 24 kts 242°
2026-04-28 10:12 37.41865 -5.91160 74 ft 23 kts 236°
2026-04-28 10:12 37.41787 -5.91113 73 ft 17 kts 88°
2026-04-28 10:12 37.41787 -5.91045 74 ft 0 kts 88°
2026-04-28 10:14 37.41788 -5.91030 75 ft 3 kts 87°
2026-04-28 10:14 37.41788 -5.90912 76 ft 40 kts 89°
2026-04-28 10:14 37.41793 -5.90239 80 ft 111 kts 90°
2026-04-28 10:15 37.41739 -5.89146 410 ft 133 kts 96°
2026-04-28 10:15 37.41650 -5.87962 986 ft 140 kts 92°
2026-04-28 10:15 37.41609 -5.86679 1492 ft 158 kts 92°
2026-04-28 10:15 37.41604 -5.85325 2300 ft 157 kts 90°
2026-04-28 10:16 37.41628 -5.84058 3257 ft 141 kts 90°
2026-04-28 10:16 37.41650 -5.82817 3878 ft 145 kts 91°
2026-04-28 10:16 37.41676 -5.81563 4486 ft 146 kts 88°
2026-04-28 10:16 37.41874 -5.80325 5086 ft 148 kts 77°
2026-04-28 10:17 37.42154 -5.79092 5690 ft 147 kts 77°
2026-04-28 10:17 37.42415 -5.77894 6273 ft 145 kts 78°
2026-04-28 10:17 37.42671 -5.76698 6855 ft 141 kts 73°
2026-04-28 10:17 37.43173 -5.75683 7422 ft 138 kts 44°
2026-04-28 10:18 37.43959 -5.75094 7974 ft 131 kts 21°
2026-04-28 10:18 37.44783 -5.74756 8486 ft 121 kts 18°
2026-04-28 10:18 37.45602 -5.74399 8790 ft 129 kts 22°
2026-04-28 10:18 37.46410 -5.73980 9246 ft 123 kts 24°
2026-04-28 10:19 37.47213 -5.73523 9562 ft 129 kts 26°
2026-04-28 10:19 37.48003 -5.73054 9979 ft 126 kts 26°
2026-04-28 10:19 37.48801 -5.72573 10307 ft 130 kts 26°
2026-04-28 10:19 37.49617 -5.72080 10685 ft 130 kts 26°
2026-04-28 10:20 37.50433 -5.71587 11029 ft 132 kts 26°
2026-04-28 10:20 37.51248 -5.71094 11382 ft 132 kts 26°
2026-04-28 10:20 37.52076 -5.70593 11729 ft 133 kts 26°
2026-04-28 10:20 37.52910 -5.70088 12088 ft 133 kts 26°
2026-04-28 10:21 37.53752 -5.69579 12403 ft 136 kts 26°
2026-04-28 10:21 37.54594 -5.69069 12765 ft 134 kts 26°
2026-04-28 10:21 37.55446 -5.68552 13043 ft 136 kts 26°
2026-04-28 10:21 37.56299 -5.68035 13339 ft 136 kts 26°
2026-04-28 10:22 37.57163 -5.67512 13593 ft 140 kts 26°
2026-04-28 10:22 37.58035 -5.66984 13888 ft 139 kts 26°
2026-04-28 10:22 37.58908 -5.66455 14149 ft 140 kts 26°
2026-04-28 10:22 37.59791 -5.65919 14420 ft 141 kts 26°
2026-04-28 10:23 37.60672 -5.65385 14683 ft 142 kts 27°
2026-04-28 10:23 37.61555 -5.64850 14980 ft 139 kts 27°
2026-04-28 10:23 37.62431 -5.64319 15232 ft 140 kts 27°
2026-04-28 10:23 37.63316 -5.63781 15485 ft 142 kts 27°
2026-04-28 10:24 37.64204 -5.63242 15757 ft 141 kts 27°
2026-04-28 10:24 37.65092 -5.62703 15994 ft 143 kts 27°
2026-04-28 10:24 37.65979 -5.62165 16264 ft 141 kts 27°
2026-04-28 10:24 37.66877 -5.61619 16486 ft 144 kts 27°
2026-04-28 10:25 37.67775 -5.61073 16728 ft 144 kts 27°
2026-04-28 10:25 37.68686 -5.60520 16983 ft 144 kts 26°
2026-04-28 10:25 37.69595 -5.59967 17197 ft 146 kts 26°
2026-04-28 10:25 37.70502 -5.59415 17438 ft 146 kts 26°
2026-04-28 10:26 37.71414 -5.58861 17674 ft 146 kts 26°
2026-04-28 10:26 37.72335 -5.58300 17892 ft 147 kts 26°
2026-04-28 10:26 37.73261 -5.57737 18135 ft 147 kts 26°
2026-04-28 10:26 37.74189 -5.57172 18345 ft 148 kts 26°
2026-04-28 10:27 37.75112 -5.56610 18569 ft 149 kts 26°
2026-04-28 10:27 37.76045 -5.56041 18778 ft 150 kts 26°
2026-04-28 10:27 37.76987 -5.55468 19029 ft 149 kts 26°
2026-04-28 10:27 37.77919 -5.54899 19221 ft 151 kts 26°
2026-04-28 10:28 37.78880 -5.54314 19445 ft 151 kts 26°
2026-04-28 10:28 37.79812 -5.53745 19661 ft 151 kts 26°
2026-04-28 10:28 37.80765 -5.53163 19868 ft 152 kts 26°
2026-04-28 10:29 37.82700 -5.51983 20248 ft 156 kts 26°
2026-04-28 10:29 37.83673 -5.51388 20462 ft 156 kts 26°
2026-04-28 10:29 37.84651 -5.50791 20667 ft 156 kts 26°
2026-04-28 10:29 37.85637 -5.50189 20863 ft 158 kts 26°
2026-04-28 10:30 37.86615 -5.49592 21079 ft 157 kts 26°
2026-04-28 10:30 37.87602 -5.48988 21279 ft 158 kts 26°
2026-04-28 10:30 37.88587 -5.48386 21458 ft 159 kts 26°
2026-04-28 10:30 37.89578 -5.47779 21682 ft 157 kts 26°
2026-04-28 10:31 37.90579 -5.47167 21853 ft 159 kts 25°
2026-04-28 10:31 37.91573 -5.46559 22058 ft 159 kts 25°
2026-04-28 10:31 37.92571 -5.45948 22229 ft 161 kts 26°
2026-04-28 10:31 37.93572 -5.45335 22431 ft 160 kts 25°
2026-04-28 10:32 37.94592 -5.44710 22585 ft 163 kts 26°
2026-04-28 10:32 37.95594 -5.44096 22803 ft 160 kts 26°
2026-04-28 10:32 37.96611 -5.43473 22965 ft 162 kts 26°
2026-04-28 10:32 37.97623 -5.42852 23148 ft 163 kts 26°
2026-04-28 10:33 37.98658 -5.42217 23304 ft 164 kts 26°
2026-04-28 10:33 37.99683 -5.41588 23490 ft 165 kts 26°
2026-04-28 10:33 38.00714 -5.40956 23651 ft 166 kts 26°
2026-04-28 10:33 38.01757 -5.40315 23838 ft 166 kts 26°
2026-04-28 10:34 38.02834 -5.39810 23971 ft 168 kts
2026-04-28 10:34 38.03975 -5.39624 24187 ft 164 kts
2026-04-28 10:34 38.05121 -5.39500 24353 ft 165 kts
2026-04-28 10:34 38.06273 -5.39369 24537 ft 165 kts
2026-04-28 10:35 38.07421 -5.39232 24705 ft 165 kts
2026-04-28 10:35 38.08548 -5.39029 24832 ft 169 kts 23°
2026-04-28 10:35 38.09504 -5.38105 24944 ft 170 kts 48°
2026-04-28 10:35 38.10276 -5.37000 25162 ft 167 kts 51°
2026-04-28 10:36 38.11032 -5.35867 25301 ft 168 kts 52°
2026-04-28 10:36 38.11782 -5.34740 25474 ft 167 kts 52°
2026-04-28 10:36 38.12534 -5.33613 25602 ft 169 kts 52°
2026-04-28 10:36 38.13087 -5.32343 25682 ft 167 kts 83°
2026-04-28 10:37 38.13229 -5.30905 25892 ft 161 kts 89°
2026-04-28 10:37 38.13476 -5.29493 25992 ft 168 kts 70°
2026-04-28 10:37 38.14156 -5.28292 26119 ft 172 kts 41°
2026-04-28 10:37 38.15150 -5.27435 26268 ft 171 kts 28°
2026-04-28 10:38 38.16222 -5.26755 26404 ft 172 kts 20°
2026-04-28 10:38 38.17356 -5.26330 26540 ft 172 kts 12°
2026-04-28 10:38 38.18515 -5.26001 26689 ft 171 kts 11°
2026-04-28 10:38 38.19681 -5.25626 26823 ft 171 kts 14°
2026-04-28 10:39 38.20822 -5.25171 26924 ft 173 kts 18°
2026-04-28 10:39 38.21954 -5.24643 27077 ft 172 kts 18°
2026-04-28 10:39 38.23083 -5.24105 27177 ft 174 kts 21°
2026-04-28 10:39 38.24203 -5.23519 27314 ft 174 kts 22°
2026-04-28 10:40 38.25314 -5.22924 27451 ft 174 kts 22°
2026-04-28 10:40 38.26429 -5.22332 27564 ft 175 kts 22°
2026-04-28 10:40 38.27560 -5.21743 27711 ft 174 kts 22°
2026-04-28 10:40 38.28686 -5.21167 27822 ft 175 kts 21°
2026-04-28 10:41 38.29819 -5.20594 27970 ft 173 kts 21°
2026-04-28 10:41 38.30917 -5.20039 28117 ft 173 kts 21°
2026-04-28 10:41 38.32054 -5.19467 28232 ft 175 kts 21°
2026-04-28 10:41 38.33183 -5.18895 28421 ft 173 kts 21°
2026-04-28 10:42 38.34297 -5.18330 28512 ft 175 kts 20°
2026-04-28 10:42 38.35437 -5.17752 28637 ft 175 kts 21°
2026-04-28 10:42 38.36561 -5.17182 28785 ft 174 kts 20°
2026-04-28 10:42 38.37687 -5.16611 28885 ft 176 kts 21°
2026-04-28 10:43 38.38832 -5.16030 29042 ft 174 kts 20°
2026-04-28 10:43 38.39953 -5.15461 29144 ft 176 kts 21°
2026-04-28 10:43 38.41099 -5.14879 29240 ft 177 kts 20°
2026-04-28 10:43 38.42239 -5.14300 29396 ft 175 kts 20°
2026-04-28 10:44 38.43371 -5.13723 29489 ft 177 kts 20°
2026-04-28 10:44 38.44513 -5.13143 29604 ft 178 kts 20°
2026-04-28 10:44 38.45660 -5.12559 29774 ft 176 kts 20°
2026-04-28 10:44 38.46809 -5.11973 29862 ft 180 kts 21°
2026-04-28 10:45 38.47977 -5.11379 30019 ft 178 kts 21°
2026-04-28 10:45 38.49118 -5.10797 30160 ft 178 kts 20°
2026-04-28 10:45 38.50284 -5.10203 30261 ft 180 kts 20°
2026-04-28 10:45 38.51444 -5.09611 30407 ft 179 kts 20°
2026-04-28 10:46 38.52612 -5.09015 30527 ft 180 kts 20°
2026-04-28 10:46 38.53764 -5.08427 30660 ft 180 kts 20°
2026-04-28 10:46 38.54930 -5.07832 30801 ft 179 kts 20°
2026-04-28 10:46 38.56089 -5.07240 30913 ft 180 kts 20°
2026-04-28 10:47 38.57237 -5.06653 31048 ft 179 kts 20°
2026-04-28 10:47 38.58411 -5.06054 31148 ft 181 kts 20°
2026-04-28 10:47 38.59571 -5.05460 31292 ft 179 kts 19°
2026-04-28 10:47 38.60727 -5.04869 31391 ft 181 kts 19°
2026-04-28 10:48 38.61899 -5.04269 31512 ft 180 kts 19°
2026-04-28 10:48 38.63064 -5.03669 31630 ft 181 kts 20°
2026-04-28 10:48 38.64225 -5.03055 31738 ft 181 kts 20°
2026-04-28 10:48 38.65378 -5.02452 31859 ft 181 kts 19°
2026-04-28 10:49 38.66559 -5.01843 31960 ft 181 kts 19°
2026-04-28 10:49 38.67719 -5.01248 32090 ft 180 kts 19°
2026-04-28 10:49 38.68884 -5.00653 32189 ft 181 kts 19°
2026-04-28 10:49 38.70052 -5.00056 32304 ft 181 kts 19°
2026-04-28 10:50 38.71219 -4.99458 32401 ft 181 kts 19°
2026-04-28 10:50 38.72385 -4.98860 32517 ft 181 kts 19°
2026-04-28 10:50 38.73571 -4.98252 32593 ft 183 kts 19°
2026-04-28 10:50 38.74743 -4.97651 32724 ft 181 kts 19°
2026-04-28 10:51 38.75916 -4.97048 32817 ft 182 kts 19°
2026-04-28 10:51 38.77097 -4.96442 32914 ft 182 kts 19°
2026-04-28 10:51 38.78276 -4.95837 32995 ft 183 kts 19°
2026-04-28 10:51 38.79455 -4.95231 33112 ft 182 kts 19°
2026-04-28 10:52 38.80629 -4.94628 33191 ft 184 kts 19°
2026-04-28 10:52 38.81815 -4.94019 33301 ft 183 kts 19°
2026-04-28 10:52 38.82995 -4.93412 33403 ft 183 kts 19°
2026-04-28 10:52 38.84175 -4.92805 33484 ft 184 kts 19°
2026-04-28 10:53 38.85371 -4.92189 33596 ft 183 kts 19°
2026-04-28 10:53 38.86546 -4.91584 33695 ft 182 kts 19°
2026-04-28 10:53 38.87727 -4.90976 33757 ft 184 kts 19°
2026-04-28 10:53 38.88907 -4.90368 33879 ft 182 kts 19°
2026-04-28 10:54 38.90102 -4.89752 33920 ft 186 kts 19°
2026-04-28 10:54 38.91315 -4.89128 33931 ft 191 kts 19°
2026-04-28 10:54 38.92559 -4.88486 33933 ft 198 kts 19°
2026-04-28 10:54 38.93857 -4.87816 33935 ft 205 kts 19°
2026-04-28 10:55 38.95200 -4.87124 33937 ft 213 kts 19°
2026-04-28 10:55 38.96606 -4.86401 33940 ft 221 kts 19°
2026-04-28 10:55 38.98071 -4.85644 33943 ft 230 kts 19°
2026-04-28 10:55 38.99576 -4.84866 33943 ft 239 kts 19°
2026-04-28 10:56 39.01148 -4.84053 33943 ft 248 kts 20°
2026-04-28 10:56 39.02779 -4.83208 33944 ft 257 kts 20°
2026-04-28 10:56 39.04466 -4.82335 33940 ft 267 kts 20°
2026-04-28 10:56 39.06215 -4.81429 33936 ft 276 kts 20°
2026-04-28 10:57 39.08035 -4.80485 33940 ft 285 kts 20°
2026-04-28 10:57 39.09897 -4.79520 33944 ft 295 kts 20°
2026-04-28 10:57 39.11819 -4.78522 33942 ft 304 kts 20°
2026-04-28 10:58 39.15850 -4.76428 33939 ft 320 kts 20°
2026-04-28 10:58 39.20063 -4.74234 33932 ft 335 kts 20°
2026-04-28 10:59 39.24456 -4.71945 33932 ft 347 kts 20°
2026-04-28 10:59 39.29003 -4.69574 33933 ft 357 kts 20°
2026-04-28 11:00 39.33669 -4.67137 33935 ft 367 kts 20°
2026-04-28 11:00 39.38433 -4.64645 33934 ft 374 kts 20°
2026-04-28 11:01 39.43317 -4.62087 33938 ft 381 kts 20°
2026-04-28 11:01 39.48209 -4.59520 33933 ft 380 kts 20°
2026-04-28 11:02 39.53093 -4.56954 33937 ft 378 kts 20°
2026-04-28 11:02 39.57927 -4.54411 33937 ft 377 kts 20°
2026-04-28 11:03 39.62796 -4.51845 33937 ft 377 kts 20°
2026-04-28 11:03 39.67625 -4.49297 33936 ft 376 kts 20°
2026-04-28 11:04 39.72488 -4.46726 33937 ft 375 kts 20°
2026-04-28 11:04 39.77312 -4.44172 33937 ft 375 kts 20°
2026-04-28 11:05 39.82143 -4.41611 33932 ft 375 kts 20°
2026-04-28 11:05 39.86937 -4.39065 33933 ft 375 kts 20°
2026-04-28 11:06 39.91768 -4.36496 33933 ft 375 kts 20°
2026-04-28 11:06 39.96581 -4.33933 33934 ft 374 kts 21°
2026-04-28 11:07 40.01350 -4.31181 33932 ft 375 kts 24°
2026-04-28 11:07 40.06043 -4.28242 33933 ft 375 kts 25°
2026-04-28 11:08 40.10757 -4.25315 33720 ft 381 kts 24°
2026-04-28 11:08 40.15541 -4.22364 33890 ft 374 kts 24°
2026-04-28 11:09 40.20238 -4.19511 33935 ft 373 kts 24°
2026-04-28 11:09 40.24937 -4.16646 33943 ft 373 kts 24°
2026-04-28 11:10 40.29621 -4.13773 33953 ft 373 kts 24°
2026-04-28 11:10 40.34303 -4.10895 33970 ft 373 kts 24°
2026-04-28 11:11 40.38991 -4.08008 33976 ft 373 kts 24°